Location: Wingville
(42.9917°N, 90.4915°W)
Time: 13:39:29
(UTC+00:00)

CUBESAT XI-V - Pass Details

Date: 01 July 2022
Orbit: 668 x 690 km, 98.1° (Epoch: 18 August)

Event Time Altitude Azimuth Distance (km) Brightness Sun altitude
Exits shadow 07:52:35 39° 177° (S) 1,011 ? -19.5°
Maximum altitude 07:54:17 78° 257° (WSW) 692 ? -19.4°
Drops below altitude 10° 07:58:54 10° 344° (NNW) 2,109 ? -19.0°
Sets 08:01:08 0° 346° (NNW) 3,025 ? -18.8°
